IRIDIUM 132

Last updated on Tue Sep 22 2026 00:03:21 GMT+0000 (Coordinated Universal Time)

1 42961U 17061G 26264.29308713 .00000011 00000+0 -29708-5 0 9993 2 42961 86.4021 345.0945 0002101 95.4148 264.7287 14.34217588468591
UTC large
Height (km)
Speed (km/s)
/
Latitude / Longitude
Inclination (degrees)
Orbital Period (minutes)
Azimuth
Elevation
Range (km)
Doppler Factor

Next 0 passes for location: London (51.5072 / 0.1276)

No passes found over London.
IRIDIUM 132